User: anonymous   Login
Location: Ottawa
(45.4170°N, 75.7000°W)
Time: 15:14:25
(UTC-04:00)
Language:

Aureole 3 Rocket - Orbit

View from above orbital plane
View from above orbital plane
View from above satellite
View from above satellite

Ground track
Ground track

The orbit data is extracted from the following two-line orbital elements,

1 12849U 81094B   17178.64216332 +.00000467 +00000-0 +40223-4 0  9999
2 12849 082.4914 158.7358 0903885 027.0230 337.5127 13.50154116743355
Epoch (UTC): 27 June 2017 15:24:42
Eccentricity: 0.0903885
inclination: 82.4914°
perigee height: 398 km
apogee height: 1745 km
right ascension of ascending node: 158.7358°
argument of perigee: 27.0230°
revolutions per day: 13.50154116
mean anomaly at epoch: 337.5127°
orbit number at epoch: 74335

The dashed part of the orbit path shows where the satellite is in the earth's shadow,  

DLR